GFSFLT1_925_rhum_177.txt.gz
RH
42 44 52 60 65 68 69 70 70 73 82 87 91 93 91 92 92 82 72 76 76 67 67 66 63 65 88 96 94 88 86 88 80
25 25 26 27 29 32 35 38 43 46 49 52 63 79 89 95 93 88 81 74 76 80 81 74 74 63 82 96 96 98 98 97 96
39 39 37 37 35 29 28 29 30 30 30 32 34 40 47 59 84 90 86 80 72 78 80 81 78 78 90 96 95 96 96 96 98
46 45 43 44 44 43 41 40 43 43 44 38 33 31 30 33 35 48 70 76 77 75 76 88 87 83 90 90 97 96 96 95 93
47 46 47 51 50 50 54 52 52 52 53 53 53 50 45 42 43 42 34 64 71 80 79 85 87 86 85 87 88 88 88 89 86
45 46 49 48 48 51 54 62 55 54 53 52 51 49 48 48 48 46 43 44 61 80 75 80 87 82 81 87 90 90 95 91 86
42 42 45 45 50 53 57 59 59 58 57 55 52 51 50 49 48 47 46 42 64 72 72 68 79 81 87 91 95 93 90 90 92
36 41 45 50 56 59 63 63 65 64 61 58 54 52 51 50 49 48 48 53 65 59 56 68 77 82 91 91 87 85 86 88 88
33 37 47 56 62 58 62 68 69 68 67 63 58 55 53 53 52 50 51 55 58 58 60 69 81 93 92 88 88 90 90 88 89
35 44 48 58 56 55 68 71 70 68 68 66 61 60 57 55 55 53 52 54 59 64 65 75 90 91 90 89 89 91 90 89 89
34 41 48 53 52 56 71 73 70 66 70 67 65 64 60 55 58 58 57 60 65 69 71 81 93 95 93 91 91 89 89 91 90
37 42 47 51 48 60 69 63 53 63 70 71 70 66 58 57 58 61 64 64 71 72 71 86 97 96 94 91 89 91 90 86 85
38 42 48 50 49 58 66 63 62 65 76 77 69 60 62 62 60 64 67 69 70 72 80 86 94 99 99 92 93 87 84 83 80
43 44 49 52 52 53 60 63 65 65 75 78 70 65 64 64 68 63 64 62 65 76 83 86 86 95 98 93 94 95 96 85 92
46 49 51 54 54 54 56 62 66 64 78 74 66 63 61 65 68 62 61 62 68 76 81 73 78 85 84 85 95 98 97 91 96
48 52 53 55 58 58 58 60 67 65 74 76 69 64 63 65 64 63 59 62 69 67 67 68 74 83 80 83 93 97 99 96 97
54 56 57 58 61 61 61 60 68 71 71 80 84 93 72 61 64 65 65 62 66 59 58 61 70 77 79 81 87 80 90 97 94
56 58 59 59 62 64 64 63 64 76 75 72 77 91 96 87 66 62 64 63 68 74 66 59 63 71 79 78 79 75 76 98 96
58 59 60 60 63 66 67 67 64 71 81 72 77 75 74 89 92 66 63 65 64 65 70 70 71 67 71 72 78 76 76 97 97
53 56 58 59 62 65 67 70 69 66 78 80 77 76 72 68 81 73 76 64 66 64 69 67 74 72 70 76 78 82 78 91 94

GFSFLT1_925_rhum_183.txt.gz
RH
32 36 40 43 45 51 64 73 71 71 65 65 70 71 53 50 64 92 96 95 89 82 88 96 96 89 88 91 95 94 93 92 94
42 43 47 61 68 73 78 79 78 78 79 80 81 67 40 35 32 39 46 61 76 89 90 88 95 96 95 95 96 94 95 97 98
46 46 50 70 69 76 79 78 75 77 78 80 76 54 53 51 46 36 39 39 35 47 77 91 94 90 96 90 92 96 94 94 95
46 47 48 63 71 76 79 79 81 81 70 60 55 54 53 52 50 50 49 47 49 66 68 77 90 92 86 87 86 87 89 89 91
44 43 44 47 52 68 80 82 83 62 61 59 58 55 54 52 52 50 49 48 63 61 90 88 92 85 85 85 80 83 88 90 92
38 39 40 45 52 50 49 60 61 62 61 61 61 58 55 54 53 53 52 52 62 88 91 86 82 83 80 74 76 83 87 91 94
31 34 38 47 38 34 50 58 58 55 58 64 63 60 59 57 56 55 54 67 72 78 82 82 84 88 90 84 93 92 92 94 95
30 32 35 36 33 40 52 52 42 37 54 67 66 64 62 59 58 57 55 60 74 78 81 83 84 87 94 94 93 96 97 95 92
29 30 34 39 40 45 51 44 39 33 46 66 67 67 65 62 58 60 58 61 74 82 84 87 89 91 94 94 94 93 91 89 90
32 34 38 41 43 45 49 47 43 38 31 54 64 64 66 63 59 62 61 67 68 79 88 87 89 91 89 87 85 90 91 90 86
36 39 40 42 45 47 46 49 47 43 34 43 56 57 60 63 62 63 67 70 73 80 91 92 90 88 86 83 84 86 88 83 82
38 40 42 45 48 47 45 44 42 37 31 41 58 60 65 68 66 70 73 74 72 76 90 92 89 91 90 92 95 97 90 71 70
39 41 46 47 49 49 46 47 42 43 39 45 67 60 66 69 70 69 67 63 66 70 77 76 82 84 91 89 90 90 79 77 83
40 45 50 51 51 51 51 50 51 49 47 51 70 64 69 72 70 70 68 67 69 73 71 67 68 77 89 90 94 96 93 82 94
44 49 51 53 54 55 55 54 50 53 54 52 72 69 66 72 70 68 67 68 74 70 66 62 65 63 73 80 88 91 96 95 92
48 51 54 57 59 60 62 61 57 54 58 58 49 67 68 65 70 68 62 63 79 79 79 71 70 72 70 72 81 92 93 93 94
54 55 56 59 60 62 63 65 66 65 67 75 86 92 64 62 58 66 63 64 63 64 69 75 75 76 73 76 74 79 80 92 89
54 52 56 60 63 64 66 66 70 71 68 73 80 78 86 87 65 66 63 61 60 60 62 73 70 70 79 75 75 77 77 95 89
49 49 50 54 61 64 67 70 72 74 74 72 76 74 81 89 92 63 55 61 60 63 66 64 63 65 78 71 74 79 76 95 92
44 46 49 53 56 60 65 70 75 78 77 76 76 80 78 78 90 95 81 66 63 65 62 66 65 75 77 77 73 79 70 89 92

GFSFLT1_925_rhum_186.txt.gz
RH
68 48 65 74 75 79 82 81 80 81 81 82 83 83 56 41 34 34 43 57 75 90 99 98 96 96 97 96 96 98 96 96 97
67 51 71 74 74 78 82 80 79 80 82 82 82 77 52 50 47 44 34 34 36 50 68 79 92 96 91 90 90 96 97 95 96
55 45 68 72 75 79 80 82 85 86 83 81 70 55 54 51 50 50 49 48 49 69 64 69 76 89 91 94 93 85 87 91 93
40 40 43 70 76 81 82 84 88 83 63 60 58 56 54 54 52 51 50 49 58 66 67 78 84 94 82 82 84 83 83 88 88
36 36 39 46 47 56 81 86 81 58 59 61 61 59 56 54 54 54 53 52 72 78 91 84 91 94 88 82 80 83 87 90 97
31 36 42 42 33 43 52 56 48 43 50 62 65 63 59 57 56 56 55 70 71 83 84 86 88 90 80 64 71 84 83 84 86
32 34 37 35 35 38 41 36 32 28 42 61 66 65 63 60 59 58 56 68 71 75 81 84 85 87 93 93 93 96 95 93 92
30 32 33 32 33 35 36 32 30 28 28 52 64 66 66 63 59 60 59 74 76 77 84 88 88 92 94 95 96 96 96 94 92
33 33 34 34 33 36 36 37 35 30 25 38 53 59 64 64 61 62 62 67 77 83 86 88 89 90 90 91 90 93 93 92 93
35 37 38 38 38 38 39 38 35 34 29 34 47 51 58 61 62 66 68 69 70 84 87 87 83 84 88 86 80 81 92 89 78
36 39 41 42 42 41 41 42 42 39 32 47 56 56 60 65 64 68 74 76 76 87 91 87 86 87 86 93 93 92 91 84 79
38 41 46 45 45 43 43 39 38 36 32 62 62 62 68 67 72 74 72 67 68 76 82 82 80 87 87 89 89 93 92 76 82
39 46 48 47 48 48 45 45 39 40 38 64 62 67 71 72 72 68 66 68 71 72 68 65 71 71 90 92 91 94 79 91 94
43 48 50 51 52 50 48 47 51 48 43 57 70 68 75 71 72 68 68 70 75 72 70 66 66 66 68 76 82 94 95 95 96
47 51 52 55 54 52 52 54 53 53 52 42 71 68 71 74 70 69 68 70 74 80 75 70 70 71 74 79 84 90 93 93 94
51 54 56 58 57 60 61 60 59 56 57 49 43 64 70 60 69 67 68 71 71 69 72 75 74 74 75 74 81 83 91 88 88
57 55 52 55 58 60 64 66 66 65 65 73 80 85 56 65 55 68 64 64 62 60 60 65 75 70 72 76 75 76 83 93 86
47 48 47 50 56 62 67 70 72 73 70 70 75 74 77 89 58 59 65 61 57 56 61 63 61 62 65 79 75 77 81 91 86
46 46 47 50 53 57 63 71 76 79 77 74 76 74 80 88 91 59 55 62 60 61 60 67 64 65 68 79 73 74 74 90 85
43 42 43 47 51 55 60 62 68 77 81 81 80 80 81 82 95 98 82 70 72 68 72 60 61 66 80 80 72 76 77 90 85

GFSFLT1_925_rhum_189.txt.gz
RH
72 72 76 77 79 84 84 84 84 86 85 84 84 83 49 47 45 44 36 31 33 63 70 75 82 92 96 90 94 96 96 96 96
58 67 76 77 80 82 84 84 86 86 85 84 83 61 51 49 46 46 47 47 46 68 65 65 70 78 86 86 83 84 88 90 97
48 68 77 79 80 81 83 85 88 86 85 85 72 55 54 52 52 50 48 47 58 67 67 74 74 83 89 86 77 80 82 82 87
33 34 50 50 63 79 85 86 65 50 52 57 57 57 55 54 54 54 52 50 76 73 91 93 88 92 94 85 79 77 82 85 88
29 32 36 28 29 41 64 43 28 26 37 53 59 61 58 56 56 56 55 72 77 87 87 86 88 92 92 88 78 80 78 70 72
29 32 30 29 32 37 32 27 23 21 28 49 59 61 61 59 59 58 56 75 72 78 80 83 84 88 93 94 94 95 95 95 94
30 30 29 31 33 34 33 29 26 22 19 35 54 60 62 61 59 61 59 77 74 78 89 88 89 91 92 94 93 89 98 97 96
30 30 31 32 31 31 31 30 30 28 24 24 44 56 62 62 60 61 61 79 78 86 88 88 89 91 90 91 92 93 92 91 93
33 35 36 34 33 34 34 34 33 29 26 33 40 49 58 62 62 66 68 74 86 89 86 85 80 78 84 85 82 81 91 91 84
35 39 38 37 38 38 36 36 36 35 33 48 50 50 60 65 63 72 73 74 90 92 88 85 83 82 83 94 90 86 86 87 84
36 40 41 41 43 42 39 40 39 37 42 57 54 60 67 68 69 77 82 78 79 84 83 82 81 86 82 87 93 93 93 83 72
36 42 46 45 45 43 40 37 36 34 34 62 64 67 70 73 75 73 67 68 69 72 73 72 74 76 90 88 87 92 93 74 91
38 46 48 49 47 42 43 43 37 38 37 66 67 72 73 72 71 68 69 72 71 69 68 66 75 76 76 77 78 91 83 96 97
44 50 50 51 48 49 46 45 46 45 42 45 68 71 73 72 72 70 71 75 79 78 73 70 67 69 82 82 81 91 83 90 93
47 52 51 53 54 53 51 50 50 51 50 44 56 70 70 72 71 69 69 75 82 78 73 73 71 70 70 79 81 86 89 89 89
52 52 51 53 55 56 58 58 57 56 56 52 56 61 70 58 52 66 67 66 64 62 61 63 73 74 69 71 73 82 92 88 89
53 46 46 49 51 55 59 64 67 64 65 74 76 54 47 65 54 67 67 64 62 53 54 57 68 65 68 72 75 76 81 89 86
45 44 44 46 48 52 57 63 69 78 69 71 69 55 55 71 56 54 64 59 58 60 64 67 70 63 60 71 77 75 76 88 82
43 41 41 42 46 50 56 61 66 74 83 75 75 70 77 70 65 63 57 58 62 63 64 70 62 64 66 77 79 75 75 90 82
40 38 39 42 45 47 50 54 59 68 78 84 86 84 89 90 81 74 69 74 76 76 70 66 67 69 72 84 79 74 72 75 84